AO-07 1 07530U 74089B 22048.56983860 -.00000047 00000-0 -84036-5 0 9993 2 07530 101.8912 28.1243 0011959 272.1572 198.3347 12.53652980162443 UO-11 1 14781U 84021B 22048.53066460 .00000507 00000-0 67796-4 0 9993 2 14781 97.6091 41.5077 0008493 6.6877 353.4449 14.83451895 22269 LO-19 1 20442U 90005G 22048.49708318 .00000048 00000-0 34039-4 0 9997 2 20442 98.7780 11.6341 0012111 156.2835 203.8909 14.33023410675926 HUBBLE 1 20580U 90037B 22048.80986817 .00001537 00000-0 81174-4 0 9998 2 20580 28.4689 241.2491 0002526 182.6441 195.6165 15.10046144548374 MET-2/21 1 22782U 93055A 22048.63061688 .00000089 00000-0 66787-4 0 9992 2 22782 82.5478 109.3500 0021447 326.6949 141.4431 13.83846387437432 AO-27 1 22825U 93061C 22048.80981683 .00000033 00000-0 30739-4 0 9999 2 22825 98.9012 77.2331 0009147 45.7942 314.3989 14.30145449481325 IO-26 1 22826U 93061D 22048.79180645 .00000038 00000-0 32505-4 0 9995 2 22826 98.8956 77.1023 0009473 33.3308 326.8468 14.30487751481550 FO-29 1 24278U 96046B 22048.57091415 -.00000021 00000-0 16740-4 0 9992 2 24278 98.5333 88.6650 0349546 234.2105 122.6077 13.53110555259399 NOAA-15 1 25338U 98030A 22048.79615081 .00000074 00000-0 49502-4 0 9999 2 25338 98.6589 79.8134 0009337 287.7981 72.2180 14.26090925236216 GO-32 1 25397U 98043D 22048.60656688 .00000017 00000-0 27036-4 0 9991 2 25397 98.8035 358.8568 0002345 91.2314 268.9133 14.23732646226378 ISS 1 25544U 98067A 22048.84541826 .00007678 00000-0 14324-3 0 9999 2 25544 51.6421 207.5975 0005656 139.7310 332.2420 15.49820452326672 NO-44 1 26931U 01043C 22048.63063511 .00000026 00000-0 41515-4 0 9998 2 26931 67.0529 7.6670 0007371 279.0135 81.0132 14.30663377 64424 SO-50 1 27607U 02058C 22048.87237935 .00000408 00000-0 77549-4 0 9995 2 27607 64.5557 307.7691 0069730 318.4109 41.1700 14.75922699 30932 CO-55 1 27844U 03031E 22048.84406637 .00000144 00000-0 84307-4 0 9991 2 27844 98.6812 58.3259 0010970 88.9701 271.2733 14.22383188966908 CO-57 1 27848U 03031J 22048.55912286 .00000120 00000-0 74237-4 0 9990 2 27848 98.6861 58.5863 0010850 102.2132 258.0261 14.21949691966640 RS-22 1 27939U 03042A 22048.71476406 .00000601 00000-0 11557-3 0 9999 2 27939 98.1696 189.6210 0012094 221.1108 138.9197 14.67142573983489 NOAA-18 1 28654U 05018A 22048.79520160 .00000130 00000-0 94275-4 0 9990 2 28654 98.9634 119.2654 0013410 311.7583 48.2442 14.12689356863175 CO-58 1 28895U 05043F 22048.86120956 .00000580 00000-0 11925-3 0 9991 2 28895 98.0865 182.2425 0017331 154.2529 205.9540 14.64099326870146 Falconsat-3 1 30776U 07006E 22048.45919958 .00022025 00000-0 44509-3 0 9998 2 30776 35.4342 321.3347 0003700 312.6280 47.4137 15.45558251830964 CO-65 1 32785U 08021C 22048.43605651 .00001255 00000-0 13869-3 0 9995 2 32785 97.6430 23.2376 0011236 272.2424 87.7507 14.89082815748622 AAUSAT2 1 32788U 08021F 22048.84886208 .00003186 00000-0 28596-3 0 9990 2 32788 97.5250 38.5648 0012209 156.6882 203.4896 14.96355865750648 DO-64 1 32789U 08021G 22048.58343971 .00006024 00000-0 36495-3 0 9998 2 32789 97.3526 79.4019 0011650 27.0362 333.1472 15.10886618753817 CO-66 1 32791U 08021J 22048.48493137 .00002282 00000-0 23063-3 0 9999 2 32791 97.5992 28.9194 0011743 224.9419 135.0851 14.91926132749309 RS-30 1 32953U 08025A 22048.70094834 .00000021 00000-0 80971-4 0 9990 2 32953 82.5005 258.3951 0019384 159.9696 200.2150 12.43107153623454 PRISM 1 33493U 09002B 22048.53801858 .00002777 00000-0 23694-3 0 9997 2 33493 98.2188 28.4558 0014833 190.9087 169.1814 14.98546000711012 NOAA-19 1 33591U 09005A 22048.85392019 .00000074 00000-0 65201-4 0 9997 2 33591 99.1636 80.3913 0014264 160.6127 199.5590 14.12530728671567 SRMSAT 1 37841U 11058D 22048.25003281 .00000343 00000-0 43539-4 0 9993 2 37841 19.9713 261.4905 0011900 103.3882 54.7637 14.10726151534246 HRBE 1 37855U 11061F 22048.37046473 .00007183 00000-0 33501-3 0 9991 2 37855 101.7138 104.3879 0160846 61.3579 300.3705 15.09674768563105 RS-40 1 38735U 12041C 22048.52576088 .00000005 00000-0 -36999-4 0 9997 2 38735 82.4811 340.2809 0016071 275.0258 84.8985 12.42583840433629 ZACUBE-1 1 39417U 13066B 22048.46300059 .00001259 00000-0 16084-3 0 9992 2 39417 97.6225 25.5209 0059845 78.3077 282.4844 14.81850618445358 Delfi-N3xt 1 39428U 13066N 22048.56131694 .00001816 00000-0 29031-3 0 9997 2 39428 97.8064 348.2061 0117600 301.5368 57.4395 14.68517399440933 GOMX-1 1 39430U 13066Q 22048.86428397 .00001030 00000-0 19216-3 0 9994 2 39430 97.8163 322.8800 0151406 62.0437 299.5993 14.59860287438840 LO-74 1 39440U 13066AA 22048.45938718 .00000831 00000-0 12025-3 0 9992 2 39440 97.7112 11.2114 0079829 159.7158 200.7255 14.76558975442570 AO-73 1 39444U 13066AE 22048.83271416 .00001498 00000-0 18589-3 0 9994 2 39444 97.6114 28.2668 0058749 66.3783 294.3584 14.82828827444380 SPROUT 1 39770U 14029E 22048.85598784 .00004897 00000-0 52034-3 0 9997 2 39770 97.9278 165.3054 0009548 118.4465 241.7669 14.89440420419857 DTUSAT-2 1 40030U 14033W 22048.54510502 .00001355 00000-0 14843-3 0 9993 2 40030 97.9312 340.9435 0013295 88.4086 271.8654 14.89387458415798 EO-80 1 40032U 14033Y 22048.78347250 .00001295 00000-0 14225-3 0 9996 2 40032 97.9317 341.1934 0013244 88.7424 271.5310 14.89352745416322 HODOYOSHI-1 1 40299U 14070B 22048.88825229 .00003872 00000-0 15459-3 0 9993 2 40299 97.2594 120.5646 0011920 193.8376 254.7856 15.25670515404828 FIREBIRD FU3 1 40377U 15003B 22048.49465928 .00010975 00000-0 36364-3 0 9990 2 40377 99.1125 247.0039 0110120 70.3251 290.9824 15.25792083390107 FIREBIRD FU4 1 40378U 15003C 22048.52691066 .00010030 00000-0 33188-3 0 9992 2 40378 99.1130 247.2286 0110128 69.9054 291.3990 15.25870393390114 GRIFEX 1 40379U 15003D 22048.77783233 .00007589 00000-0 28690-3 0 9995 2 40379 99.1167 234.6408 0122776 107.4742 253.9951 15.20523566389431 XW-2A 1 40903U 15049E 22048.72165326 .00013204 00000-0 24795-3 0 9993 2 40903 97.2025 107.3928 0010898 189.6616 319.8229 15.48665069360706 XW-2C 1 40906U 15049H 22048.72534653 .00004522 00000-0 22691-3 0 9995 2 40906 97.4929 53.2249 0015811 60.2604 54.8858 15.17716334354750 XW-2D 1 40907U 15049J 22048.72559513 .00005083 00000-0 25140-3 0 9993 2 40907 97.4915 53.1221 0015125 56.3968 58.7658 15.18169631354790 LILACSAT-2 1 40908U 15049K 22048.90233708 .00002284 00000-0 12548-3 0 9997 2 40908 97.5139 50.7575 0017259 71.9286 351.1841 15.15008130354383 XW-2E 1 40909U 15049L 22048.84185394 .00007335 00000-0 33126-3 0 9995 2 40909 97.4679 57.5556 0014208 39.2819 82.8165 15.21179160355215 XW-2F 1 40910U 15049M 22048.91606738 .00007293 00000-0 33424-3 0 9999 2 40910 97.4752 56.7375 0014815 40.8786 25.3190 15.20669752355001 XW-2B 1 40911U 15049N 22048.93081713 .00004966 00000-0 24637-3 0 9992 2 40911 97.4905 53.9632 0015186 56.7946 6.3204 15.18076000354710 DCBB 1 40912U 15049P 22048.89464302 .00008222 00000-0 34718-3 0 9997 2 40912 97.4419 61.0868 0013988 10.8752 106.7401 15.23433205355531 TW-1A 1 40928U 15051D 22048.86850872 .00021055 00000-0 36010-3 0 9991 2 40928 97.0552 73.2767 0010958 104.0054 19.5455 15.51221325359656 IO-86 1 40931U 15052B 22048.57509695 .00000960 00000-0 44532-4 0 9999 2 40931 6.0008 304.1560 0013254 274.9440 84.9190 14.76735541345597 ATHENOXAT-1 1 41168U 15077C 22048.92668470 .00010118 00000-0 44961-3 0 9996 2 41168 14.9883 254.0994 0011480 2.7238 34.5438 15.17793432342103 ChubuSat-2 1 41338U 16012B 22048.37623476 .00001431 00000-0 10304-3 0 9993 2 41338 31.0034 68.1512 0013444 41.8968 318.2694 15.00884373329429 ChubuSat-3 1 41339U 16012C 22048.70949709 .00001607 00000-0 11625-3 0 9993 2 41339 31.0116 63.0337 0013186 52.4967 307.6865 15.01004961329475 Horyu-4 1 41340U 16012D 22048.68915705 .00002123 00000-0 14954-3 0 9993 2 41340 31.0056 43.4667 0013475 90.2476 269.9704 15.02483254329697 e-st@r-II 1 41459U 16025D 22048.83283951 .00006450 00000-0 30202-3 0 9997 2 41459 98.1683 205.5203 0152807 314.8530 44.0370 15.10293896319425 AAUSAT4 1 41460U 16025E 22048.68962816 .00010764 00000-0 46518-3 0 9996 2 41460 98.1659 210.6261 0137529 294.7593 63.9308 15.14450076319789 LO-87 1 41557U 16033B 22048.81611814 .00009102 00000-0 29970-3 0 9993 2 41557 97.3881 146.6406 0013442 83.8402 70.3294 15.31631319319052 NuSat2 1 41558U 16033C 22048.79873390 .00008597 00000-0 26530-3 0 9996 2 41558 97.4042 151.6684 0012597 76.4992 41.1340 15.33736209319299 Lapan A3 1 41603U 16040E 22048.87227995 .00000989 00000-0 48456-4 0 9997 2 41603 97.2248 91.0227 0012027 215.2125 317.7994 15.20309589313862 Pratham 1 41783U 16059A 22048.35210321 .00000268 00000-0 60510-4 0 9999 2 41783 97.9318 94.6170 0033293 191.0177 169.0300 14.63238216288064 TY-1 1 41844U 16066D 22048.85073240 .00009368 00000-0 35076-3 0 9995 2 41844 97.3953 61.6420 0013908 0.1722 122.2534 15.27420230293336 CAS-2T 1 41847U 16066G 22048.42518289 .00000706 00000-0 11648-3 0 9994 2 41847 98.5679 113.1565 0364243 208.6297 149.4458 14.38369094277095 EO-88 1 42017U 17008BX 22048.62291922 .00008753 00000-0 29668-3 0 9996 2 42017 97.2857 116.7447 0004565 329.4610 30.6365 15.30776230278722 CAS-4B 1 42759U 17034B 22048.87862502 .00002825 00000-0 17951-3 0 9999 2 42759 43.0174 271.2761 0009336 261.5440 112.7942 15.10922397258265 CAS-4A 1 42761U 17034D 22048.80468813 .00003061 00000-0 19295-3 0 9998 2 42761 43.0176 270.5588 0009904 263.0037 195.0247 15.11008738258255 NIUSat 1 42766U 17036B 22048.85976956 .00004924 00000-0 20420-3 0 9993 2 42766 97.2194 91.0353 0015331 36.3212 323.9063 15.24213418258574 Aalto 1 1 42775U 17036L 22048.59545357 .00004162 00000-0 17479-3 0 9995 2 42775 97.2155 90.8606 0014046 36.9882 323.2321 15.23895900258515 URSA MAIOR 1 42776U 17036M 22048.61285731 .00004351 00000-0 18050-3 0 9992 2 42776 97.2168 91.5022 0013741 36.0382 324.1780 15.24289101258540 Max Valier Sat 1 42778U 17036P 22048.57980813 .00004298 00000-0 17471-3 0 9998 2 42778 97.2238 93.8636 0012242 38.2664 321.9441 15.24998178258627 Pegasus 1 42784U 17036V 22048.55891743 .00006194 00000-0 24146-3 0 9990 2 42784 97.2179 94.4972 0011884 40.4193 319.7927 15.26235687258716 NUDATSat 1 42787U 17036Y 22048.90882462 .00013305 00000-0 46996-3 0 9999 2 42787 97.2230 98.2063 0011374 28.0895 332.0957 15.29265827258808 SUCHAI 1 1 42788U 17036Z 22048.07856266 .00008934 00000-0 33491-3 0 9999 2 42788 97.2188 95.3938 0011223 38.4116 321.7921 15.27415537258791 SKCUBE 1 42789U 17036AA 22048.61938668 .00006750 00000-0 25712-3 0 9998 2 42789 97.2183 95.4920 0011175 37.4488 322.7528 15.26979783258775 VZLUSAT 1 1 42790U 17036AB 22048.58234205 .00009502 00000-0 33743-3 0 9993 2 42790 97.2215 97.8707 0010058 32.1899 327.9954 15.29190513258903 VENTA 1 1 42791U 17036AC 22048.62030685 .00006021 00000-0 23152-3 0 9991 2 42791 97.2181 95.4536 0010871 38.3424 321.8586 15.26713990258760 Robusta 1B 1 42792U 17036AD 22048.67441458 .00007472 00000-0 28131-3 0 9994 2 42792 97.2182 96.0328 0010736 37.7398 322.4592 15.27336088258822 D-SAT 1 42794U 17036AF 22048.59323244 .00001303 00000-0 11539-3 0 9990 2 42794 97.4541 60.3691 0125821 125.9427 235.3543 14.92010211253648 TechnoSat 1 42829U 17042E 22048.61428669 .00000869 00000-0 91737-4 0 9991 2 42829 97.4368 269.6491 0015356 51.9879 308.2724 14.91535175250228 QIKCOM-1 1 42983U 98067NF 22048.65061047 .00037710 00000-0 23684-3 0 9995 2 42983 51.6353 86.9877 0001273 148.5835 211.5242 15.76355010245936 AO-91 1 43017U 17073E 22048.70740768 .00002127 00000-0 16718-3 0 9996 2 43017 97.6895 307.7884 0251018 219.3644 138.9090 14.80398927229390 PICSAT 1 43132U 18004X 22048.78165207 .00007503 00000-0 27619-3 0 9991 2 43132 97.3844 126.0715 0009652 66.9443 293.2813 15.28097869228113 AO-92 1 43137U 18004AC 22048.45838713 .00006463 00000-0 24652-3 0 9997 2 43137 97.3815 124.8619 0009660 70.8212 289.4071 15.26975856228024 TianYi 2 1 43155U 18008A 22048.90950365 .00005580 00000-0 31302-3 0 9998 2 43155 97.3713 111.2029 0016295 194.4323 269.4390 15.13643647225186 Zhou Enlai 1 43156U 18008B 22048.91564728 .00006022 00000-0 34082-3 0 9994 2 43156 97.3761 111.0600 0013714 193.0243 339.3321 15.13324182225116 TianYi 6 1 43158U 18008D 22048.75655081 .00005242 00000-0 30356-3 0 9994 2 43158 97.3739 109.1051 0012569 194.7087 302.0574 15.12571979225004 S-Net D 1 43186U 18014G 22048.70003424 .00001457 00000-0 13015-3 0 9992 2 43186 97.6679 316.7189 0010568 350.2109 9.8906 14.97424578220998 S-Net B 1 43187U 18014H 22048.70005956 .00001449 00000-0 12945-3 0 9997 2 43187 97.6676 316.6758 0010551 350.1154 9.9859 14.97423681220990 S-Net A 1 43188U 18014J 22048.49981474 .00001493 00000-0 13323-3 0 9992 2 43188 97.6680 316.5360 0010564 350.9114 9.1915 14.97422254220969 S-Net C 1 43189U 18014K 22048.50037621 .00001415 00000-0 12651-3 0 9998 2 43189 97.6676 316.4702 0010581 350.7069 9.3956 14.97421056219515 FMN 1 1 43192U 18015A 22048.81625064 .00017988 00000-0 58119-3 0 9992 2 43192 97.5146 191.4528 0013359 94.1278 43.2841 15.32071081225093 Shaonian Xing 1 43199U 18015H 22048.79961237 .00012008 00000-0 41103-3 0 9994 2 43199 97.4939 187.5160 0015759 104.5744 32.9518 15.30268325225124 SurfSat 1 43614U 18070B 22048.47812351 .00019815 00000-0 39353-3 0 9991 2 43614 93.0206 48.2096 0015477 122.4358 237.8400 15.46801710192478 CP-7 DAVE 1 43615U 18070C 22048.48944831 .00018958 00000-0 38332-3 0 9995 2 43615 93.0209 48.1261 0015671 122.9519 237.3248 15.46280476192458 ELFIN-B 1 43616U 18070D 22048.57773887 .00025910 00000-0 42574-3 0 9996 2 43616 93.0153 48.8164 0015007 116.1296 244.1511 15.52185552192686 ELFIN-A 1 43617U 18070E 22048.49697760 .00032152 00000-0 51086-3 0 9997 2 43617 93.0204 49.9040 0014579 112.7037 247.5767 15.53105253192701 CubeBel-1 1 43666U 18083E 22048.87448887 .00007385 00000-0 33556-3 0 9993 2 43666 97.4353 79.0378 0015060 38.7555 64.4203 15.20953445183297 Changshagaoxin 1 43669U 18083H 22048.81807116 .00006484 00000-0 30729-3 0 9992 2 43669 97.4280 75.3193 0011421 37.9197 135.1359 15.19587922183124 Ten-Koh 1 43677U 18084G 22048.81450788 .00000750 00000-0 82232-4 0 9998 2 43677 97.9450 177.9559 0014851 309.1417 50.8480 14.90726577179853 PO-101 1 43678U 18084H 22048.74137388 .00001137 00000-0 11811-3 0 9993 2 43678 97.9496 180.7741 0009168 329.4685 30.5973 14.91929094180007 IRVINE 01 1 43693U 18088D 22048.40674453 .00020109 00000-0 68745-3 0 9994 2 43693 85.0320 31.6814 0014112 185.0353 175.0754 15.30055486181828 QO-100 1 43700U 18090A 22048.52736227 .00000146 00000-0 00000-0 0 9993 2 43700 0.0064 134.4096 0002459 222.2945 6.3904 1.00272539 11822 Reaktor Hello World 1 43743U 18096AA 22048.76781880 .00007382 00000-0 24842-3 0 9999 2 43743 97.3633 129.3844 0017407 123.4969 236.7938 15.30935369179636 MinXSS-2 1 43758U 18099A 22048.46443153 .00002156 00000-0 19407-3 0 9998 2 43758 97.6386 119.2681 0013985 311.0029 48.9982 14.96595194175150 AO-95 1 43770U 18099N 22048.73710196 .00001927 00000-0 17762-3 0 9993 2 43770 97.6364 118.1718 0013238 321.8373 38.1910 14.95786314175114 RANGE-B 1 43772U 18099Q 22048.70717218 .00001381 00000-0 12732-3 0 9990 2 43772 97.6460 119.5608 0012936 306.9356 53.0679 14.96228683175125 RANGE-A 1 43773U 18099R 22048.43347970 .00000733 00000-0 71100-4 0 9990 2 43773 97.6291 116.9276 0012303 309.2720 50.7409 14.95556374175056 MOVE-II 1 43780U 18099Y 22048.51486325 .00002369 00000-0 21232-3 0 9992 2 43780 97.6385 118.8297 0012299 316.5697 43.4555 14.96673508175118 SNUSat 2 1 43782U 18099AA 22048.46489293 .00001874 00000-0 17206-3 0 9991 2 43782 97.6365 118.3318 0011270 307.3607 52.6587 14.95989088175090 SnugLite 1 43784U 18099AC 22048.45041429 .00001611 00000-0 14794-3 0 9995 2 43784 97.6323 117.9830 0013844 314.4830 45.5258 14.96152126175111 ITASat 1 1 43786U 18099AE 22048.81271806 .00001694 00000-0 15583-3 0 9999 2 43786 97.6389 119.0920 0013766 313.9184 46.0900 14.96021239175162 EAGLET 1 1 43790U 18099AJ 22048.45889536 .00001208 00000-0 11180-3 0 9999 2 43790 97.6373 119.2504 0012229 318.5585 41.4708 14.96302602174844 ESEO 1 43792U 18099AL 22048.75804395 .00000340 00000-0 35397-4 0 9997 2 43792 97.6338 118.9112 0012158 315.8570 44.1680 14.95938277174934 CSIM 1 43793U 18099AM 22048.60854183 .00002945 00000-0 25846-3 0 9992 2 43793 97.6394 119.6828 0011095 309.5110 50.5131 14.97331894174945 Astrocast 0.1 1 43798U 18099AS 22048.76311546 .00000437 00000-0 43186-4 0 9997 2 43798 97.6391 119.8747 0010919 295.2217 64.7873 14.96744717175203 JO-97 1 43803U 18099AX 22048.46248188 .00002049 00000-0 18574-3 0 9995 2 43803 97.6346 118.4877 0013704 313.6149 46.3934 14.96362664175125 Suomi 100 1 43804U 18099AY 22048.74180945 .00002035 00000-0 18474-3 0 9997 2 43804 97.6346 118.7023 0013694 313.5956 46.4128 14.96311222175170 Al Farabi 2 1 43805U 18099AZ 22048.89897233 .00002644 00000-0 23625-3 0 9999 2 43805 97.6391 119.2261 0014131 312.9549 47.0476 14.96678165175219 CHOMPTT 1 43855U 18104G 22048.67341202 .00004598 00000-0 17954-3 0 9995 2 43855 85.0378 130.8772 0014893 327.0299 33.0015 15.25501314176455 ISAT 1 43879U 18111D 22048.46234922 .00001988 00000-0 17666-3 0 9996 2 43879 97.6739 316.2600 0013073 7.7025 352.4396 14.97196317171714 UWE-4 1 43880U 18111E 22048.48040886 .00002271 00000-0 20011-3 0 9998 2 43880 97.6766 316.9016 0012165 11.2867 348.8626 14.97402056171747 Sparrow 1 43881U 18111F 22048.70743184 .00001577 00000-0 14012-3 0 9997 2 43881 97.6793 317.3131 0012723 8.3861 351.7572 14.97500502169781 Lume 1 1 43908U 18111AJ 22048.62503991 .00005715 00000-0 21071-3 0 9999 2 43908 97.2085 300.2982 0020695 136.7859 223.5010 15.27976413175081 FO-98 1 43933U 19003B 22048.79186965 .00073720 00000-0 16541-2 0 9990 2 43933 97.1535 87.4719 0009598 222.6630 137.3874 15.43081869171672 FO-99 1 43937U 19003F 22048.61225984 .00006354 00000-0 23543-3 0 9990 2 43937 97.1471 86.7834 0020902 217.9797 141.9970 15.27768929171666 MYSat 1 1 44045U 18092F 22047.93336812 .00024424 00000-0 50877-3 0 9993 2 44045 51.6362 309.4965 0008139 24.7373 335.4003 15.45418511169183 AstroCast 0.2 1 44083U 19018F 22048.78957993 .00005418 00000-0 22285-3 0 9991 2 44083 97.3403 110.0487 0012140 183.8409 176.2737 15.24501518160247 AISTechSat 3 1 44103U 19018AB 22048.59227614 .00005202 00000-0 20762-3 0 9992 2 44103 97.3267 110.2910 0012338 192.3801 167.7136 15.25527136160367 AISat 1 1 44104U 19018AC 22048.50403032 .00005998 00000-0 17926-3 0 9994 2 44104 97.4038 131.3299 0054134 200.7012 159.2039 15.33505770161208 Prox-1 1 44339U 19036A 22048.61634348 .00002137 00000-0 44584-3 0 9994 2 44339 23.9993 229.4969 0011185 342.5567 17.4540 14.54225996140888 Oculus-ASR 1 44348U 19036K 22048.36333495 .00051443 00000-0 60590-3 0 9994 2 44348 28.5066 292.7057 0287168 56.5587 306.2126 15.23621321146133 Armadillo 1 44352U 19036P 22048.62151586 .00097075 -39204-5 89481-3 0 9992 2 44352 28.5248 243.2195 0224692 134.1790 227.7510 15.40300876146600 NO-104 1 44354U 19036R 22047.97952789 .00060763 00000-0 68947-3 0 9999 2 44354 28.5243 284.4343 0280207 67.2781 295.7180 15.25753344146185 NO-103 1 44355U 19036S 22048.61353636 .00149340 -89943-6 84465-3 0 9990 2 44355 28.5218 176.4343 0145073 243.0255 115.5469 15.64063175147302 Move-IIb 1 44398U 19038N 22048.90559520 .00008241 00000-0 43382-3 0 9998 2 44398 97.6128 17.5489 0022677 177.6403 182.4940 15.15666983144916 SONATE 1 44400U 19038Q 22048.56532617 .00003580 00000-0 20297-3 0 9993 2 44400 97.6245 16.7652 0024163 182.0631 178.0503 15.13404141144794 BeeSat 9 1 44412U 19038AC 22048.83111709 .00004297 00000-0 23430-3 0 9999 2 44412 97.6224 17.5533 0021196 182.9433 177.1677 15.14738946144575 JAISAT-1 1 44419U 19038F 22048.85457551 .00005088 00000-0 27314-3 0 9990 2 44419 97.6227 18.3193 0020253 180.3459 179.7762 15.15219919144937 LightSail-2 1 44420U 19036AC 22048.59247219 .00019153 00000-0 33742-2 0 9998 2 44420 24.0033 189.3576 0017453 21.7849 338.3385 14.65945184139405 Taurus 1 1 44530U 19059C 22048.77654265 .00001902 00000-0 53970-3 0 9997 2 44530 98.5454 146.2280 0015080 121.4028 238.8636 14.46534091128541 Duchifat 3 1 44854U 19089C 22048.46822021 .00002919 00000-0 23544-3 0 9995 2 44854 36.9673 91.1302 0008678 321.6011 38.4096 15.00151431119901 OPS-SAT 1 44878U 19092F 22048.56198881 .00004277 00000-0 21350-3 0 9998 2 44878 97.4761 233.7409 0014190 41.8860 318.3457 15.17951120119999 TO-108 1 44881U 19093C 22048.77373465 .00000502 00000-0 70615-4 0 9995 2 44881 97.9032 129.6723 0014067 211.2858 148.7506 14.81571018117053 FloripaSat 1 1 44885U 19093G 22048.77480036 .00001649 00000-0 21092-3 0 9999 2 44885 97.9061 130.6758 0013762 217.9393 142.0832 14.82654126117116 RS-44 1 44909U 19096E 22048.41549748 .00000027 00000-0 70998-4 0 9995 2 44909 82.5232 310.0445 0216373 240.3034 117.6375 12.79711928100159 Phoenix 1 45258U 98067RB 22048.60023803 .00050179 00000-0 43984-3 0 9995 2 45258 51.6349 174.6487 0003175 66.6855 293.4476 15.68342714113497 Quetzal 1 1 45598U 98067RL 22048.53599043 .00652122 20733-3 11124-2 0 9992 2 45598 51.6291 156.8281 0008565 341.4323 18.6374 16.01887389103051 BY70-2 1 45857U 20042B 22048.80698878 .00005568 00000-0 77436-3 0 9991 2 45857 97.9645 126.9190 0011862 139.3242 220.8831 14.78174501 87772 UPMSat 2 1 46276U 20061E 22048.83669464 .00002213 00000-0 11474-3 0 9994 2 46276 97.4056 122.4060 0001083 153.0889 207.0401 15.17185615 80731 AmicalSat 1 46287U 20061R 22048.16484739 .00003237 00000-0 19553-3 0 9995 2 46287 97.4607 120.8220 0002323 7.6718 352.4548 15.11385668 80290 SALSAT 1 46495U 20068K 22048.55558687 .00001430 00000-0 10810-3 0 9990 2 46495 97.7199 349.9676 0015676 329.4634 30.5678 15.03901147 76162 BY70-3 1 46839U 20079N 22048.89844083 .00012979 00000-0 36021-3 0 9991 2 46839 97.2140 122.9507 0007657 52.8072 64.5756 15.37006020 71858 SPOC 1 46921U 98067RR 22048.11984560 .00060185 00000-0 59500-3 0 9994 2 46921 51.6369 188.8024 0002564 295.1819 64.8910 15.65283252 73015 Bobcat-1 1 46922U 98067RS 22048.79141080 .00110903 00000-0 66758-3 0 9998 2 46922 51.6362 176.0540 0004777 316.0252 44.0367 15.76854164 73196 Neutron-1 1 46923U 98067RT 22048.60165123 .00046388 00000-0 46183-3 0 9998 2 46923 51.6378 186.7758 0002603 303.7110 56.3637 15.65217534 73115 CAPE 3 1 47309U 21002A 22048.58011587 .00004756 00000-0 21399-3 0 9998 2 47309 60.6848 94.6195 0024094 186.6160 173.4613 15.22466382 60187 AO-109 1 47311U 21002C 22048.81571930 .00004265 00000-0 18927-3 0 9998 2 47311 60.6853 91.8553 0021462 180.0313 180.0777 15.23213651 60238 MiTEE 1 1 47314U 21002F 22048.83409794 .00008647 00000-0 34158-3 0 9993 2 47314 60.6840 87.8530 0023419 166.9525 193.2175 15.26011555 60318 ExoCube 2 1 47319U 21002L 22048.58488820 .00004607 00000-0 20579-3 0 9991 2 47319 60.6850 93.5128 0021637 181.8937 178.2072 15.22823317 60147 UVSQ-SAT 1 47438U 21006AB 22048.39340576 .00003961 00000-0 22029-3 0 9995 2 47438 97.4549 109.9048 0011696 338.1141 21.9589 15.14186796 59108 YUSAT 1 1 47439U 21006AC 22048.58470221 .00004397 00000-0 24303-3 0 9999 2 47439 97.4555 110.1249 0011477 337.7148 22.3583 15.14353264 59130 SOMP 2b 1 47445U 21006AJ 22048.43726064 .00003700 00000-0 20728-3 0 9993 2 47445 97.4523 109.7044 0011403 342.6840 17.4001 15.13970212 59106 IDEASSat 1 47458U 21006AX 22048.20814100 .00003168 00000-0 17879-3 0 9992 2 47458 97.4613 109.8645 0010525 342.1650 17.9211 15.13819681 59061 RSP-01 1 47925U 98067SB 22048.68344716 .00052039 00000-0 55423-3 0 9993 2 47925 51.6386 194.8181 0002497 267.8308 92.2400 15.63458989 52952 TAUSAT-1 1 47926U 98067SC 22048.76171645 .00074936 00000-0 65332-3 0 9992 2 47926 51.6380 190.8128 0003433 275.3597 84.7008 15.68307663 53003 Tsuru 1 47927U 98067SD 22048.58988641 .00047115 00000-0 53418-3 0 9996 2 47927 51.6376 196.4369 0002191 258.8412 101.2336 15.61894982 52927 STARS-EC 1 47928U 98067SE 22048.79832950 .00104879 00000-0 84851-3 0 9997 2 47928 51.6368 191.0543 0006491 306.9590 53.0813 15.69963454 52993 Maya-2 1 47929U 98067SF 22048.58593816 .00046421 00000-0 52707-3 0 9993 2 47929 51.6378 196.4095 0002168 256.0793 103.9960 15.61864475 52884 OPUSAT-II 1 47930U 98067SG 22048.68018469 .00106403 00000-0 82148-3 0 9991 2 47930 51.6355 190.2719 0003729 287.4284 72.6306 15.71096027 53016 GuaraniSat-1 1 47931U 98067SH 22048.77139670 .00040981 00000-0 46420-3 0 9991 2 47931 51.6389 195.4097 0002247 256.1563 103.9181 15.61981964 52950 CubeSX-Sirius-HSE 1 47951U 21022V 22048.91751755 .00002782 00000-0 19203-3 0 9996 2 47951 97.5430 310.9616 0020885 189.7821 304.7462 15.06422137 49999 CubeSX-HSE 1 47952U 21022W 22048.76710274 .00002663 00000-0 18384-3 0 9998 2 47952 97.5414 310.8255 0020758 190.2376 255.8427 15.06458502 49971 KSU-Cubesat 1 47954U 21022Y 22048.53098588 .00003018 00000-0 20696-3 0 9996 2 47954 97.5435 310.6560 0020717 190.9733 169.1045 15.06603839 49666 GRBAlpha 1 47959U 21022AD 22048.76690779 .00002716 00000-0 18738-3 0 9994 2 47959 97.5422 310.8514 0020684 190.6806 256.8004 15.06471334 48794 Orbicraft-Zorkiy 1 47960U 21022AE 22048.75045049 .00003763 00000-0 25727-3 0 9998 2 47960 97.5445 310.9230 0020575 191.1744 254.2962 15.06570763 49481 STECCO 1 47962U 21022AG 22048.76919653 .00004724 00000-0 31054-3 0 9990 2 47962 97.5399 311.3603 0015450 184.0907 267.1664 15.07972760 48821 DO-111 1 47963U 21022AH 22048.25319744 .00009493 00000-0 59065-3 0 9990 2 47963 97.5444 311.3047 0018003 180.8095 179.3109 15.09691816 48790 MO-110 1 47964U 21022AJ 22048.69141058 .00003647 00000-0 23838-3 0 9994 2 47964 97.5420 311.4577 0018949 182.0028 178.1127 15.08282596 48824 FEES 1 48082U 21022AL 22048.70439136 .00004600 00000-0 30067-3 0 9997 2 48082 97.5434 311.3344 0015226 176.8784 183.2542 15.08202438 48529 RamSat 1 48850U 98067SL 22048.43912312 .00032854 00000-0 45515-3 0 9991 2 48850 51.6391 203.6507 0003950 322.8385 37.2333 15.56765655 38567 MO-112 1 48868U 98067SP 22048.67995026 .00099354 00000-0 88490-3 0 9996 2 48868 51.6361 196.9934 0004684 310.1621 49.8965 15.67659562 37457 TUBIN 1 48900U 21059X 22048.70128737 .00003761 00000-0 21720-3 0 9991 2 48900 97.5341 179.2056 0011096 149.5817 317.1578 15.12878689 35807 IT-SPINS 1 49017U 21013G 22048.82128186 .00005525 00000-0 23663-3 0 9990 2 49017 51.6018 251.1609 0007811 2.8779 357.2243 15.24264967 35525 LEDSAT 1 49069U 21073D 22048.75784601 .00002655 00000-0 17679-3 0 9996 2 49069 97.5368 124.0436 0027380 347.1534 12.8993 15.07680941 27793 CUTE 1 49263U 21088D 22048.45798537 .00002639 00000-0 20442-3 0 9992 2 49263 97.6062 118.7877 0022050 112.9961 247.3593 15.02098037 21408 Binar-1 1 49272U 98067SR 22047.86531618 .00035209 00000-0 51533-3 0 9996 2 49272 51.6384 209.5516 0005031 232.1406 127.9130 15.55234410 20823 Maya-3 1 49273U 98067SS 22048.59351288 .00040500 00000-0 56203-3 0 9990 2 49273 51.6383 205.4160 0004954 236.3406 123.7113 15.56612812 20947 Maya-4 1 49274U 98067ST 22048.59857512 .00039535 00000-0 55078-3 0 9997 2 49274 51.6385 205.4497 0004852 235.2210 124.8325 15.56519548 20940 CUAVA-1 1 49275U 98067SU 22048.75375532 .00041921 00000-0 59120-3 0 9997 2 49275 51.6397 204.7042 0004810 242.4277 248.9208 15.56162590 20915 TeikyoSat 4 1 49396U 21102B 22048.58954039 .00001323 00000-0 10965-3 0 9999 2 49396 97.5564 110.2786 0017543 300.0827 59.8657 15.00396953 15078 Z-Sat 1 49399U 21102E 22048.80804216 .00000207 00000-0 20264-4 0 9992 2 49399 97.5531 110.8136 0020199 279.2282 80.6658 15.02105855 15123 KOSEN 1 1 49402U 21102H 22048.81510907 .00000845 00000-0 66980-4 0 9992 2 49402 97.5479 110.8680 0020326 267.2991 92.5908 15.03032074 15133 HO-113 1 50466U 21131B 22048.80994974 .00000101 00000-0 47677-4 0 9992 2 50466 98.5917 126.0805 0005635 135.8004 224.3626 14.38443192 7713 Grizu-263a 1 51025U 22002AT 22048.72982614 .00007676 00000-0 43025-3 0 9997 2 51025 97.5132 117.9147 0014990 116.1208 244.1568 15.13577821 5313 IRIS-A 1 51044U 22002BN 22048.15761540 .00002432 00000-0 14381-3 0 9996 2 51044 97.4980 117.2245 0010897 116.0243 244.2111 15.12363892 5221 DELFI-PQ 1 51074U 22002CU 22048.76652192 .00005579 00000-0 30317-3 0 9990 2 51074 97.5213 118.0577 0015403 144.6795 215.5460 15.14801864 5325 Hades 1 51080U 22002DA 22048.43757429 .00004590 00000-0 25110-3 0 9997 2 51080 97.5227 117.7348 0015041 145.0838 215.1383 15.14664041 5278 EASAT-2 1 51081U 22002DB 22048.43799479 .00004721 00000-0 25823-3 0 9996 2 51081 97.5220 117.7308 0015371 145.1775 215.0465 15.14651202 5270 GASPACS 1 51439U 98067TB 22048.60662879 .00059630 00000-0 93477-3 0 9998 2 51439 51.6394 208.4932 0005617 149.1035 211.0287 15.53107675 3466 /EX